Regional Weather Roundup
Issued by NWS

Home | Current Version | Previous Version | Graphics & Text | Print | Product List | Glossary Off
Versions: 1 2 3 4 5 6 7 8 9 10 11 12 13 14 15 16 17 18 19 20 21 22 23 24 25 26 27 28 29 30 31 32 33 34 35 36 37 38 39 40 41 42 43 44 45 46 47 48 49 50

632
ASUS43 KTOP 172308
RWRKS

WEATHER ROUNDUP FOR KANSAS
NATIONAL WEATHER SERVICE GOODLAND KS
600 PM CDT TUE OCT 17 2017

NOTE:  "FAIR" INDICATES FEW OR NO CLOUDS BELOW 12,000 FEET WITH NO
SIGNIFICANT WEATHER AND/OR OBSTRUCTIONS TO VISIBILITY.

KSZ001>006-013>018-027>032-041>047-180000-
NORTHWEST KANSAS

CITY           SKY/WX    TMP DP  RH WIND       PRES   REMARKS
GOODLAND       SUNNY     76  26  15 S9        30.05F
HAYS           CLEAR     78  44  29 S7        30.00F
HILL CITY      CLEAR     80  31  16 S6        30.01F
RUSSELL        CLEAR     78  45  30 S9        29.99F
$$

KSZ061>065-074>080-084>089-180000-
SOUTHWEST KANSAS

CITY           SKY/WX    TMP DP  RH WIND       PRES   REMARKS
DODGE CITY     SUNNY     77  38  24 S15       30.03F
ELKHART          N/A     77  44  30 SE6         N/A
GARDEN CITY    SUNNY     76  39  26 S9        30.02S
GREAT BEND     CLEAR     75  44  33 S12       30.02F
LIBERAL        SUNNY     76  42  29 S9        30.03F
PRATT          CLEAR     75  37  25 S12       30.04S
$$

KSZ066>073-081>083-090>101-180000-
SOUTHEAST KANSAS

CITY           SKY/WX    TMP DP  RH WIND       PRES   REMARKS
CHANUTE        LGT RAIN  68  47  46 S10       30.12S
COFFEYVILLE    CLEAR     68  47  46 S10       30.12F
HUTCHINSON     CLEAR     74  45  35 S14       30.04S
MEDICINE LODGE   N/A     74  40  29 MISG      30.03F
NEWTON         CLEAR     69  45  41 S15       30.06F
PARSONS        CLEAR     68  46  45 S8        30.13F
WICHITA INTL   CLEAR     71  47  42 S14       30.05F
WICHITA JABRA  CLEAR     70  45  40 S13G20    30.06F
WICHITA MCCONL CLEAR     71  44  38 SW15      30.06F
WINFIELD       CLEAR     70  45  40 S14       30.09F
$$

KSZ007>012-019>026-033>040-048>060-102>105-180000-
NORTHEAST KANSAS

CITY           SKY/WX    TMP DP  RH WIND       PRES   REMARKS
CONCORDIA      CLEAR     71  49  45 S6        30.01F
EMPORIA        CLEAR     70  44  39 S16       30.06F
LAWRENCE       CLEAR     70  47  43 S14       30.06F
MANHATTAN      CLEAR     73  48  41 SW12      30.02F
MARYSVILLE     CLEAR     70  48  46 SW6       30.02S
OLATHE IND     CLEAR     67  48  50 S9        30.09F
OLATHE EXE     CLEAR     67  47  48 S8        30.09F
SALINA         CLEAR     74  50  42 S9        30.02F
TOPEKA BILLARD CLEAR     72  47  40 S10       30.04F
TOPEKA FORBES  CLEAR     73  46  38 S12       30.04F
$$




USA.gov is the U.S. government's official web portal to all federal, state and local government web resources and services.